Cosmos 1943 Rocket - Orbit

View from above orbital plane
View from above orbital plane
View from above satellite
View from above satellite

Ground track
Ground track

The orbit data is extracted from the following two-line orbital elements,

1 19120U 88039B   13142.49580421 -.00000060  00000-0 -57775-5 0  7830
2 19120 071.0160 225.7418 0023963 304.7022 140.1061 14.18969177295484
Epoch (UTC): 22 May 2013 11:53:57
Eccentricity: 0.0023963
inclination: 71.0160°
perigee height: 811 km
apogee height: 846 km
right ascension of ascending node: 225.7418°
argument of perigee: 304.7022°
revolutions per day: 14.18969177
mean anomaly at epoch: 140.1061°
orbit number at epoch: 29548

The dashed part of the orbit path shows where the satellite is in the earth's shadow,  

Developed and maintained by Chris Peat, Heavens-Above GmbH. Please read the updated FAQ before sending e-mail. Imprint. DLR